| time (UTC) | temp C | wind direction | speed KPH | gust KPH | rain 1hr cm | rain 24hr cm | rain mn cm | humidity % | barometer mb |
| 20260505041353 | 14 | 256 | 0.0 | 0.0 | 0.00 | 0.00 | 0.00 | 66 | 1009.1 |
| 20260505040850 | 15 | 217 | 0.0 | 0.0 | 0.00 | 0.00 | 0.00 | 65 | 1009.1 |
| 20260505040348 | 15 | 194 | 0.0 | 1.6 | 0.00 | 0.00 | 0.00 | 64 | 1009.2 |
| 20260505035844 | 15 | 206 | 1.6 | 3.2 | 0.00 | 0.00 | 0.00 | 62 | 1009.2 |
| 20260505035340 | 15 | 132 | 1.6 | 1.6 | 0.00 | 0.00 | 0.00 | 63 | 1009.1 |
| 20260505034838 | 15 | 160 | 0.0 | 1.6 | 0.00 | 0.00 | 0.00 | 62 | 1009.4 |
| 20260505034334 | 15 | 183 | 1.6 | 1.6 | 0.00 | 0.00 | 0.00 | 62 | 1009.1 |
| 20260505033831 | 15 | 134 | 0.0 | 0.0 | 0.00 | 0.00 | 0.00 | 64 | 1009.1 |
| 20260505033328 | 15 | 212 | 0.0 | 0.0 | 0.00 | 0.00 | 0.00 | 64 | 1009.0 |
| 20260505032826 | 15 | 212 | 1.6 | 1.6 | 0.00 | 0.00 | 0.00 | 63 | 1009.0 |
| 20260505032322 | 15 | 211 | 0.0 | 0.0 | 0.00 | 0.00 | 0.00 | 61 | 1008.9 |
| 20260505031820 | 16 | 174 | 0.0 | 0.0 | 0.00 | 0.00 | 0.00 | 59 | 1009.2 |
| 20260505031316 | 16 | 164 | 3.2 | 3.2 | 0.00 | 0.00 | 0.00 | 57 | 1009.0 |
| 20260505030813 | 16 | 350 | 0.0 | 0.0 | 0.00 | 0.00 | 0.00 | 59 | 1009.1 |
| 20260505030310 | 16 | 287 | 3.2 | 3.2 | 0.00 | 0.00 | 0.00 | 58 | 1009.2 |
| 20260505025805 | 16 | 272 | 3.2 | 3.2 | 0.00 | 0.00 | 0.00 | 55 | 1009.0 |
| 20260505025304 | 16 | 260 | 3.2 | 4.8 | 0.00 | 0.00 | 0.00 | 56 | 1008.7 |
| 20260505024801 | 16 | 94 | 3.2 | 4.8 | 0.00 | 0.00 | 0.00 | 55 | 1009.0 |
| 20260505024258 | 17 | 323 | 4.8 | 4.8 | 0.00 | 0.00 | 0.00 | 54 | 1009.1 |
| 20260505023755 | 16 | 303 | 1.6 | 1.6 | 0.00 | 0.00 | 0.00 | 54 | 1009.2 |
| 20260505023252 | 16 | 239 | 1.6 | 1.6 | 0.00 | 0.00 | 0.00 | 54 | 1009.3 |
| 20260505022750 | 16 | 226 | 1.6 | 3.2 | 0.00 | 0.00 | 0.00 | 54 | 1009.4 |
| 20260505022246 | 16 | 289 | 1.6 | 3.2 | 0.00 | 0.00 | 0.00 | 55 | 1009.3 |
| 20260505021743 | 16 | 68 | 0.0 | 0.0 | 0.00 | 0.00 | 0.00 | 55 | 1009.5 |
| 20260505021240 | 16 | 207 | 0.0 | 1.6 | 0.00 | 0.00 | 0.00 | 55 | 1009.4 |
| 20260505020736 | 17 | 284 | 0.0 | 1.6 | 0.00 | 0.00 | 0.00 | 55 | 1009.6 |
| 20260505020231 | 17 | 191 | 0.0 | 1.6 | 0.00 | 0.00 | 0.00 | 53 | 1009.4 |
| 20260505015729 | 17 | 153 | 0.0 | 0.0 | 0.00 | 0.00 | 0.00 | 53 | 1009.6 |
| 20260505015225 | 17 | 97 | 3.2 | 3.2 | 0.00 | 0.00 | 0.00 | 54 | 1009.5 |
| 20260505014723 | 17 | 100 | 3.2 | 4.8 | 0.00 | 0.00 | 0.00 | 54 | 1009.4 |
| 20260505014220 | 17 | 186 | 0.0 | 1.6 | 0.00 | 0.00 | 0.00 | 54 | 1009.4 |
| 20260505013717 | 17 | 157 | 1.6 | 3.2 | 0.00 | 0.00 | 0.00 | 54 | 1009.6 |
| 20260505013214 | 17 | 132 | 0.0 | 0.0 | 0.00 | 0.00 | 0.00 | 55 | 1009.4 |
| 20260505012712 | 17 | 131 | 0.0 | 0.0 | 0.00 | 0.00 | 0.00 | 55 | 1009.3 |
| 20260505012209 | 17 | 132 | 0.0 | 0.0 | 0.00 | 0.00 | 0.00 | 53 | 1009.4 |
| 20260505011704 | 17 | 263 | 1.6 | 4.8 | 0.00 | 0.00 | 0.00 | 53 | 1009.5 |
| 20260505011202 | 17 | 172 | 0.0 | 0.0 | 0.00 | 0.00 | 0.00 | 52 | 1009.2 |
| 20260505010657 | 17 | 105 | 0.0 | 0.0 | 0.00 | 0.00 | 0.00 | 54 | 1009.1 |
| 20260505010154 | 17 | 91 | 0.0 | 1.6 | 0.00 | 0.00 | 0.00 | 54 | 1009.1 |
| 20260505005650 | 17 | 192 | 3.2 | 3.2 | 0.00 | 0.00 | 0.00 | 53 | 1008.9 |
| 20260505005148 | 17 | 249 | 1.6 | 4.8 | 0.00 | 0.00 | 0.00 | 55 | 1008.8 |
| 20260505004644 | 17 | 137 | 0.0 | 0.0 | 0.00 | 0.00 | 0.00 | 53 | 1008.7 |
| 20260505004141 | 17 | 250 | 0.0 | 0.0 | 0.00 | 0.00 | 0.00 | 52 | 1008.9 |
| 20260505003638 | 18 | 125 | 1.6 | 3.2 | 0.00 | 0.00 | 0.00 | 52 | 1008.8 |
| 20260505003136 | 18 | 98 | 1.6 | 3.2 | 0.00 | 0.00 | 0.00 | 52 | 1008.8 |
| 20260505002632 | 18 | 222 | 1.6 | 1.6 | 0.00 | 0.00 | 0.00 | 52 | 1008.8 |
| 20260505002130 | 18 | 328 | 1.6 | 1.6 | 0.00 | 0.00 | 0.00 | 52 | 1008.8 |
| 20260505001626 | 18 | 354 | 1.6 | 1.6 | 0.00 | 0.00 | 0.00 | 50 | 1008.4 |
| 20260505001124 | 18 | 164 | 0.0 | 1.6 | 0.00 | 0.00 | 0.00 | 49 | 1008.5 |
| 20260505000621 | 18 | 165 | 0.0 | 1.6 | 0.00 | 0.00 | 0.00 | 49 | 1008.4 |
| 20260505000119 | 19 | 150 | 1.6 | 1.6 | 0.00 | 0.00 | 0.00 | 48 | 1008.3 |
| 20260504235615 | 19 | 311 | 1.6 | 3.2 | 0.00 | 0.00 | 0.00 | 48 | 1008.4 |
| 20260504235112 | 19 | 73 | 0.0 | 0.0 | 0.00 | 0.00 | 0.00 | 47 | 1008.8 |
| 20260504234609 | 20 | 139 | 6.4 | 8.0 | 0.00 | 0.00 | 0.00 | 47 | 1008.5 |
| 20260504234106 | 20 | 137 | 4.8 | 4.8 | 0.00 | 0.00 | 0.00 | 47 | 1008.3 |
| 20260504233601 | 20 | 212 | 1.6 | 3.2 | 0.00 | 0.00 | 0.00 | 46 | 1008.2 |
| 20260504233058 | 20 | 197 | 0.0 | 0.0 | 0.00 | 0.00 | 0.00 | 46 | 1008.4 |
| 20260504232555 | 20 | 237 | 1.6 | 3.2 | 0.00 | 0.00 | 0.00 | 46 | 1008.1 |
| 20260504232053 | 20 | 18 | 3.2 | 3.2 | 0.00 | 0.00 | 0.00 | 45 | 1007.9 |
| 20260504231549 | 20 | 155 | 3.2 | 4.8 | 0.00 | 0.00 | 0.00 | 44 | 1007.9 |
| 20260504231045 | 21 | 114 | 1.6 | 1.6 | 0.00 | 0.00 | 0.00 | 45 | 1008.1 |
| 20260504230542 | 21 | 272 | 4.8 | 8.0 | 0.00 | 0.00 | 0.00 | 43 | 1008.1 |
| 20260504230041 | 21 | 215 | 3.2 | 3.2 | 0.00 | 0.00 | 0.00 | 42 | 1007.9 |
| 20260504225538 | 21 | 351 | 6.4 | 8.0 | 0.00 | 0.00 | 0.00 | 42 | 1007.8 |
| 20260504225035 | 21 | 319 | 3.2 | 4.8 | 0.00 | 0.00 | 0.00 | 43 | 1007.9 |
| 20260504224531 | 21 | 215 | 0.0 | 0.0 | 0.00 | 0.00 | 0.00 | 42 | 1007.9 |
| 20260504224028 | 22 | 237 | 4.8 | 8.0 | 0.00 | 0.00 | 0.00 | 41 | 1007.9 |
| 20260504223525 | 22 | 239 | 0.0 | 1.6 | 0.00 | 0.00 | 0.00 | 41 | 1007.8 |
| 20260504223021 | 22 | 49 | 3.2 | 3.2 | 0.00 | 0.00 | 0.00 | 40 | 1007.7 |
| 20260504222518 | 22 | 296 | 4.8 | 8.0 | 0.00 | 0.00 | 0.00 | 41 | 1007.7 |
| 20260504222016 | 22 | 148 | 0.0 | 1.6 | 0.00 | 0.00 | 0.00 | 42 | 1007.7 |
| 20260504221513 | 22 | 336 | 6.4 | 8.0 | 0.00 | 0.00 | 0.00 | 40 | 1008.0 |
| 20260504221009 | 22 | 49 | 4.8 | 4.8 | 0.00 | 0.00 | 0.00 | 40 | 1008.1 |
| 20260504220506 | 23 | 181 | 0.0 | 1.6 | 0.00 | 0.00 | 0.00 | 39 | 1008.0 |
| 20260504220003 | 22 | 221 | 4.8 | 8.0 | 0.00 | 0.00 | 0.00 | 40 | 1008.2 |
| 20260504215459 | 22 | 346 | 3.2 | 3.2 | 0.00 | 0.00 | 0.00 | 41 | 1008.1 |
| 20260504214956 | 23 | 197 | 3.2 | 3.2 | 0.00 | 0.00 | 0.00 | 40 | 1008.1 |
| 20260504214452 | 22 | 38 | 1.6 | 1.6 | 0.00 | 0.00 | 0.00 | 41 | 1008.0 |
| 20260504213949 | 22 | 221 | 1.6 | 3.2 | 0.00 | 0.00 | 0.00 | 40 | 1008.0 |
| 20260504213445 | 22 | 107 | 3.2 | 3.2 | 0.00 | 0.00 | 0.00 | 40 | 1008.2 |
| 20260504212943 | 22 | 280 | 1.6 | 3.2 | 0.00 | 0.00 | 0.00 | 40 | 1008.1 |
| 20260504212438 | 23 | 158 | 3.2 | 3.2 | 0.00 | 0.00 | 0.00 | 40 | 1008.1 |
| 20260504211937 | 22 | 192 | 0.0 | 0.0 | 0.00 | 0.00 | 0.00 | 39 | 1008.1 |
| 20260504211432 | 23 | 83 | 4.8 | 4.8 | 0.00 | 0.00 | 0.00 | 39 | 1008.1 |
| 20260504210930 | 22 | 91 | 0.0 | 1.6 | 0.00 | 0.00 | 0.00 | 39 | 1008.2 |
| 20260504210427 | 22 | 3 | 1.6 | 1.6 | 0.00 | 0.00 | 0.00 | 42 | 1008.3 |
| 20260504205924 | 22 | 295 | 3.2 | 3.2 | 0.00 | 0.00 | 0.00 | 39 | 1008.3 |
| 20260504205422 | 22 | 203 | 1.6 | 3.2 | 0.00 | 0.00 | 0.00 | 39 | 1008.4 |
| 20260504204919 | 22 | 19 | 3.2 | 4.8 | 0.00 | 0.00 | 0.00 | 40 | 1008.4 |
| 20260504204418 | 22 | 238 | 9.7 | 12.9 | 0.00 | 0.00 | 0.00 | 39 | 1008.5 |
| 20260504203917 | 22 | 0 | 4.8 | 4.8 | 0.00 | 0.00 | 0.00 | 40 | 1008.5 |
| 20260504203414 | 22 | 278 | 1.6 | 3.2 | 0.00 | 0.00 | 0.00 | 44 | 1008.7 |
| 20260504202909 | 22 | 298 | 4.8 | 4.8 | 0.00 | 0.00 | 0.00 | 41 | 1008.7 |
| 20260504202406 | 22 | 151 | 3.2 | 3.2 | 0.00 | 0.00 | 0.00 | 39 | 1008.7 |
| 20260504201903 | 22 | 279 | 6.4 | 11.3 | 0.00 | 0.00 | 0.00 | 40 | 1008.7 |
| 20260504201401 | 22 | 246 | 0.0 | 1.6 | 0.00 | 0.00 | 0.00 | 39 | 1009.0 |
| 20260504200857 | 22 | 306 | 3.2 | 4.8 | 0.00 | 0.00 | 0.00 | 39 | 1008.7 |
| 20260504200354 | 22 | 352 | 3.2 | 3.2 | 0.00 | 0.00 | 0.00 | 40 | 1009.0 |
| 20260504195851 | 21 | 254 | 3.2 | 4.8 | 0.00 | 0.00 | 0.00 | 41 | 1009.0 |
| 20260504195346 | 22 | 215 | 3.2 | 4.8 | 0.00 | 0.00 | 0.00 | 41 | 1009.1 |
| 20260504194843 | 22 | 165 | 4.8 | 8.0 | 0.00 | 0.00 | 0.00 | 41 | 1009.3 |
| 20260504194339 | 22 | 199 | 3.2 | 3.2 | 0.00 | 0.00 | 0.00 | 40 | 1009.2 |
| 20260504193836 | 22 | 318 | 6.4 | 9.7 | 0.00 | 0.00 | 0.00 | 40 | 1009.3 |
| 20260504193333 | 22 | 184 | 8.0 | 12.9 | 0.00 | 0.00 | 0.00 | 38 | 1009.3 |
| 20260504192831 | 22 | 8 | 4.8 | 4.8 | 0.00 | 0.00 | 0.00 | 40 | 1009.5 |
| 20260504192329 | 23 | 311 | 1.6 | 3.2 | 0.00 | 0.00 | 0.00 | 39 | 1009.4 |
| 20260504191827 | 22 | 148 | 4.8 | 8.0 | 0.00 | 0.00 | 0.00 | 39 | 1009.4 |
| 20260504191325 | 22 | 210 | 3.2 | 3.2 | 0.00 | 0.00 | 0.00 | 40 | 1009.6 |
| 20260504190820 | 22 | 223 | 6.4 | 8.0 | 0.00 | 0.00 | 0.00 | 39 | 1009.5 |
| 20260504190316 | 22 | 190 | 3.2 | 4.8 | 0.00 | 0.00 | 0.00 | 40 | 1009.5 |
| 20260504185813 | 21 | 309 | 4.8 | 8.0 | 0.00 | 0.00 | 0.00 | 41 | 1009.5 |
| 20260504185310 | 22 | 22 | 4.8 | 8.0 | 0.00 | 0.00 | 0.00 | 39 | 1009.8 |
| 20260504184806 | 22 | 200 | 1.6 | 3.2 | 0.00 | 0.00 | 0.00 | 39 | 1009.7 |
| 20260504184302 | 22 | 93 | 11.3 | 14.5 | 0.00 | 0.00 | 0.00 | 39 | 1009.9 |
| 20260504183758 | 21 | 297 | 1.6 | 1.6 | 0.00 | 0.00 | 0.00 | 40 | 1009.9 |
| 20260504183254 | 21 | 224 | 1.6 | 3.2 | 0.00 | 0.00 | 0.00 | 40 | 1010.0 |
| 20260504182753 | 22 | 11 | 4.8 | 8.0 | 0.00 | 0.00 | 0.00 | 40 | 1010.2 |
| 20260504182250 | 21 | 234 | 3.2 | 4.8 | 0.00 | 0.00 | 0.00 | 42 | 1010.2 |
| 20260504181747 | 22 | 269 | 6.4 | 9.7 | 0.00 | 0.00 | 0.00 | 39 | 1010.2 |
| 20260504181244 | 21 | 103 | 1.6 | 1.6 | 0.00 | 0.00 | 0.00 | 41 | 1010.2 |
| 20260504180744 | 21 | 5 | 9.7 | 11.3 | 0.00 | 0.00 | 0.00 | 39 | 1010.3 |
| 20260504180242 | 21 | 92 | 1.6 | 3.2 | 0.00 | 0.00 | 0.00 | 41 | 1010.3 |
| 20260504175739 | 20 | 285 | 8.0 | 11.3 | 0.00 | 0.00 | 0.00 | 42 | 1010.2 |
| 20260504175235 | 20 | 286 | 4.8 | 4.8 | 0.00 | 0.00 | 0.00 | 42 | 1010.4 |
| 20260504174734 | 21 | 345 | 4.8 | 8.0 | 0.00 | 0.00 | 0.00 | 40 | 1010.3 |
| 20260504174231 | 20 | 198 | 6.4 | 9.7 | 0.00 | 0.00 | 0.00 | 43 | 1010.6 |
| 20260504173727 | 20 | 239 | 4.8 | 8.0 | 0.00 | 0.00 | 0.00 | 41 | 1010.6 |
| 20260504173224 | 21 | 107 | 4.8 | 9.7 | 0.00 | 0.00 | 0.00 | 40 | 1010.7 |
| 20260504172721 | 20 | 321 | 3.2 | 3.2 | 0.00 | 0.00 | 0.00 | 43 | 1010.8 |
| 20260504172217 | 20 | 329 | 4.8 | 4.8 | 0.00 | 0.00 | 0.00 | 42 | 1010.9 |
| 20260504171714 | 21 | 228 | 4.8 | 4.8 | 0.00 | 0.00 | 0.00 | 39 | 1010.9 |
| 20260504171211 | 20 | 141 | 1.6 | 1.6 | 0.00 | 0.00 | 0.00 | 41 | 1011.0 |
| 20260504170708 | 20 | 256 | 3.2 | 4.8 | 0.00 | 0.00 | 0.00 | 43 | 1011.1 |
| 20260504170206 | 20 | 305 | 6.4 | 9.7 | 0.00 | 0.00 | 0.00 | 43 | 1011.1 |
| 20260504160124 | 18 | 152 | 0.0 | 0.0 | 0.00 | 0.00 | 0.00 | 43 | 1012.1 |
| 20260504151051 | 17 | 113 | 4.8 | 8.0 | 0.00 | 0.00 | 0.00 | 39 | 1012.7 |
| 20260504150549 | 17 | 81 | 3.2 | 3.2 | 0.00 | 0.00 | 0.00 | 39 | 1012.6 |
| 20260504141014 | 15 | 293 | 4.8 | 8.0 | 0.00 | 0.00 | 0.00 | 50 | 1013.0 |
| 20260504140510 | 15 | 338 | 4.8 | 4.8 | 0.00 | 0.00 | 0.00 | 51 | 1013.0 |
| 20260504120213 | 5 | 226 | 0.0 | 0.0 | 0.00 | 0.00 | 0.00 | 96 | 1013.9 |
| 20260504110514 | 0 | 224 | 0.0 | 0.0 | 0.00 | 0.00 | 0.00 | 98 | 1013.7 |
| 20260504100326 | 0 | 224 | 0.0 | 0.0 | 0.00 | 0.00 | 0.00 | 98 | 1013.5 |
| 20260504081720 | 1 | 225 | 0.0 | 0.0 | 0.00 | 0.00 | 0.00 | 96 | 1014.0 |
| 20260504081216 | 1 | 225 | 0.0 | 0.0 | 0.00 | 0.00 | 0.00 | 96 | 1013.8 |
| 20260504080713 | 0 | 225 | 0.0 | 0.0 | 0.00 | 0.00 | 0.00 | 95 | 1013.7 |
| 20260504080209 | 1 | 225 | 0.0 | 0.0 | 0.00 | 0.00 | 0.00 | 95 | 1013.7 |
| 20260504070137 | 1 | 225 | 0.0 | 0.0 | 0.00 | 0.00 | 0.00 | 94 | 1013.6 |
| 20260504050526 | 2 | 225 | 0.0 | 0.0 | 0.00 | 0.00 | 0.00 | 90 | 1013.7 |
| 20260504050023 | 2 | 225 | 0.0 | 0.0 | 0.00 | 0.00 | 0.00 | 90 | 1013.6 |
| 20260504045520 | 2 | 225 | 0.0 | 0.0 | 0.00 | 0.00 | 0.00 | 90 | 1013.5 |
| 20260504045015 | 3 | 225 | 0.0 | 0.0 | 0.00 | 0.00 | 0.00 | 90 | 1013.5 |
| 20260504044513 | 3 | 225 | 0.0 | 0.0 | 0.00 | 0.00 | 0.00 | 89 | 1013.5 |
| 20260504044009 | 3 | 225 | 0.0 | 0.0 | 0.00 | 0.00 | 0.00 | 89 | 1013.6 |
| 20260504043506 | 3 | 225 | 0.0 | 0.0 | 0.00 | 0.00 | 0.00 | 88 | 1013.5 |
| 20260504043004 | 3 | 225 | 0.0 | 0.0 | 0.00 | 0.00 | 0.00 | 87 | 1013.5 |
| 20260504042500 | 3 | 225 | 0.0 | 0.0 | 0.00 | 0.00 | 0.00 | 87 | 1013.7 |
| 20260504041957 | 3 | 225 | 0.0 | 0.0 | 0.00 | 0.00 | 0.00 | 88 | 1013.5 |